Вернуться в каталог

SL-8 R/B

АктивенPO
NORAD 14966·ROCKET BODY·🇷🇺 Russia

Запущен May 11, 1984 с Plesetsk Cosmodrome

Loading…

Ближайшие Пролёты (ближайшие 24 часа)

TLE

СвежийSource: Space-Track

Эпоха: Sep 14, 2026, 21:07 UTC

1 14966U 84043B   26257.88020788  .00000102  00000-0  90832-4 0  9997
2 14966  82.9724 123.6969 0016427   7.6211   8.3202 13.74892917123623

Отслеживайте SL-8 R/B в реальном времени с AllMySat

Download on the App Store